| time (UTC) | temp F | wind direction | speed MPH | gust MPH | rain 1hr in | rain 24hr in | rain mn in | humidity % | barometer mb |
| 20260831193505 | 61 | 263 | 19.0 | 25.0 | 0.00 | 0.37 | 0.00 | 1013.0 | |
| 20260831190505 | 61 | 263 | 19.0 | 25.0 | 0.00 | 0.37 | 0.00 | 1013.0 | |
| 20260831183505 | 62 | 261 | 19.0 | 25.0 | 0.00 | 0.37 | 0.00 | 1012.0 | |
| 20260831180505 | 62 | 261 | 19.0 | 25.0 | 0.00 | 0.37 | 0.00 | 1012.0 | |
| 20260831173505 | 62 | 260 | 19.0 | 26.0 | 0.00 | 0.37 | 0.00 | 1011.0 | |
| 20260831170505 | 62 | 260 | 19.0 | 26.0 | 0.00 | 0.37 | 0.00 | 1011.0 | |
| 20260831163506 | 63 | 254 | 20.0 | 26.0 | 0.00 | 0.37 | 0.00 | 1011.0 | |
| 20260831160506 | 63 | 254 | 20.0 | 26.0 | 0.00 | 0.37 | 0.00 | 1010.0 | |
| 20260831153506 | 64 | 255 | 18.0 | 23.0 | 0.00 | 0.37 | 0.00 | 1009.0 | |
| 20260831150506 | 64 | 255 | 18.0 | 23.0 | 0.00 | 0.37 | 0.00 | 1009.0 | |
| 20260831143506 | 63 | 257 | 16.0 | 21.0 | 0.00 | 0.37 | 0.00 | 1009.0 | |
| 20260831140506 | 63 | 257 | 16.0 | 21.0 | 0.00 | 0.37 | 0.00 | 1009.0 | |
| 20260831133506 | 63 | 253 | 15.0 | 19.0 | 0.00 | 0.37 | 0.00 | 1009.0 | |
| 20260831130506 | 63 | 253 | 15.0 | 19.0 | 0.00 | 0.37 | 0.00 | 1009.0 | |
| 20260831123505 | 63 | 259 | 13.0 | 17.0 | 0.00 | 0.37 | 0.00 | 1008.0 | |
| 20260831120506 | 63 | 259 | 13.0 | 17.0 | 0.00 | 0.37 | 0.00 | 1008.0 | |
| 20260831113505 | 62 | 263 | 14.0 | 17.0 | 0.00 | 0.37 | 0.00 | 1008.0 | |
| 20260831110505 | 62 | 263 | 14.0 | 17.0 | 0.00 | 0.37 | 0.00 | 1008.0 | |
| 20260831103505 | 60 | 261 | 14.0 | 18.0 | 0.00 | 0.37 | 0.00 | 1007.0 | |
| 20260831100505 | 60 | 261 | 14.0 | 18.0 | 0.00 | 0.37 | 0.00 | 1007.0 | |
| 20260831093505 | 59 | 255 | 13.0 | 16.0 | 0.00 | 0.37 | 0.00 | 1007.0 | |
| 20260831090505 | 59 | 255 | 13.0 | 16.0 | 0.00 | 0.12 | 0.00 | 1007.0 | |
| 20260831083505 | 58 | 259 | 11.0 | 15.0 | 0.00 | 0.12 | 0.00 | 1006.0 | |
| 20260831080505 | 58 | 259 | 11.0 | 15.0 | 0.00 | 0.12 | 0.00 | 1006.0 | |
| 20260831073506 | 57 | 271 | 9.0 | 13.0 | 0.00 | 0.12 | 0.00 | 1006.0 | |
| 20260831070505 | 57 | 271 | 9.0 | 13.0 | 0.00 | 0.12 | 0.00 | 1006.0 | |
| 20260831063506 | 57 | 280 | 8.0 | 11.0 | 0.00 | 0.12 | 0.00 | 1005.0 | |
| 20260831060505 | 56 | 286 | 8.0 | 11.0 | 0.00 | 0.12 | 0.00 | 1005.0 | |
| 20260831053506 | 57 | 285 | 8.0 | 12.0 | 0.00 | 0.12 | 0.00 | 1005.0 | |
| 20260831050506 | 57 | 285 | 8.0 | 12.0 | 0.00 | 0.12 | 0.00 | 1005.0 | |
| 20260831043506 | 57 | 275 | 8.0 | 11.0 | 0.00 | 0.12 | 0.00 | 1004.0 | |
| 20260831040506 | 57 | 275 | 8.0 | 11.0 | 0.00 | 0.12 | 0.00 | 1004.0 | |
| 20260831033506 | 57 | 296 | 5.0 | 7.0 | 0.00 | 0.12 | 0.00 | 1004.0 | |
| 20260831030506 | 57 | 296 | 5.0 | 7.0 | 0.00 | 0.12 | 0.00 | 1004.0 | |
| 20260831023505 | 58 | 349 | 4.0 | 6.0 | 0.00 | 0.12 | 0.00 | 1004.0 | |
| 20260831020505 | 58 | 349 | 4.0 | 6.0 | 0.00 | 0.12 | 0.00 | 1004.0 | |
| 20260831013505 | 58 | 360 | 5.0 | 7.0 | 0.00 | 0.12 | 0.00 | 1004.0 | |
| 20260831010505 | 58 | 360 | 5.0 | 7.0 | 0.00 | 0.12 | 0.00 | 1004.0 | |
| 20260831003505 | 58 | 15 | 4.0 | 5.0 | 0.00 | 0.12 | 0.00 | 1004.0 | |
| 20260831000505 | 58 | 261 | 3.0 | 5.0 | 0.00 | 0.00 | 0.00 | 1004.0 | |
| 20260830233505 | 59 | 165 | 2.0 | 3.0 | 0.00 | 0.00 | 0.00 | 1004.0 | |
| 20260830230505 | 59 | 165 | 2.0 | 3.0 | 0.00 | 0.00 | 0.00 | 1004.0 | |
| 20260830223505 | 59 | 116 | 3.0 | 4.0 | 0.00 | 0.00 | 0.00 | 1004.0 | |
| 20260830220505 | 59 | 116 | 3.0 | 4.0 | 0.00 | 0.00 | 0.00 | 1004.0 | |
| 20260830213506 | 60 | 122 | 2.0 | 3.0 | 0.00 | 0.00 | 0.00 | 1004.0 | |
| 20260830210506 | 60 | 122 | 2.0 | 3.0 | 0.00 | 0.00 | 0.00 | 1004.0 | |
| 20260830203506 | 60 | 118 | 2.0 | 3.0 | 0.00 | 0.00 | 0.00 | 1004.0 | |
| 20260830200506 | 60 | 118 | 2.0 | 3.0 | 0.00 | 0.00 | 0.00 | 1004.0 |